• In Uzbekistan
  • List of Countries
  • For 7 days
  • Water Temperature
  • Weather Map
  • Weather Widgets
  • user-avatar
    Login

    Hourly Weather Jewłach

    Today, 15 October, Tuesday

    Time Temperature Precipitation Wind Pressure Humidity
    00:00 +17°C° 0 mm 2 mps 768 mmHg 62%
    01:00 +17°C° 0 mm 2 mps 768 mmHg 69%
    02:00 +16°C° 0 mm 1 mps 767 mmHg 77%
    03:00 +15°C° 0 mm 1 mps 768 mmHg 84%
    04:00 +14°C° 0 mm 0 mps 767 mmHg 85%
    05:00 +14°C° 0 mm 0 mps 767 mmHg 87%
    06:00 +14°C° 0 mm 0 mps 767 mmHg 88%
    07:00 +15°C° 0 mm 0 mps 767 mmHg 80%
    08:00 +17°C° 0 mm 0 mps 767 mmHg 72%
    09:00 +19°C° 0 mm 0 mps 767 mmHg 64%
    10:00 +23°C° 0 mm 1 mps 766 mmHg 57%
    11:00 +24°C° 0 mm 1 mps 766 mmHg 50%
    12:00 +26°C° 0 mm 1 mps 765 mmHg 43%
    13:00 +26°C° 0 mm 1 mps 764 mmHg 40%
    14:00 +27°C° 0 mm 1 mps 764 mmHg 37%
    15:00 +27°C° 0 mm 1 mps 763 mmHg 34%
    16:00 +26°C° 0 mm 1 mps 763 mmHg 39%
    17:00 +24°C° 0 mm 1 mps 763 mmHg 43%
    18:00 +20°C° 0 mm 0 mps 763 mmHg 47%
    19:00 +20°C° 0 mm 0 mps 764 mmHg 49%
    20:00 +19°C° 0 mm 0 mps 764 mmHg 51%
    21:00 +19°C° 0 mm 0 mps 764 mmHg 52%
    22:00 +20°C° 0 mm 1 mps 764 mmHg 54%
    23:00 +20°C° 0 mm 1 mps 764 mmHg 55%

    Tomorrow, 16 October, Wednesday

    Time Temperature Precipitation Wind Pressure Humidity
    00:00 +19°C° 0 mm 1 mps 763 mmHg 56%
    01:00 +19°C° 0 mm 1 mps 763 mmHg 61%
    02:00 +18°C° 0 mm 1 mps 763 mmHg 66%
    03:00 +16°C° 0 mm 1 mps 763 mmHg 70%
    04:00 +15°C° 0 mm 0 mps 763 mmHg 73%
    05:00 +15°C° 0 mm 0 mps 763 mmHg 75%
    06:00 +14°C° 0 mm 0 mps 763 mmHg 77%
    07:00 +16°C° 0 mm 0 mps 763 mmHg 68%
    08:00 +19°C° 0 mm 0 mps 763 mmHg 59%
    09:00 +23°C° 0 mm 1 mps 764 mmHg 50%
    10:00 +24°C° 0 mm 1 mps 763 mmHg 44%
    11:00 +26°C° 0 mm 1 mps 763 mmHg 38%
    12:00 +28°C° 0 mm 1 mps 763 mmHg 32%
    13:00 +28°C° 0 mm 1 mps 762 mmHg 30%
    14:00 +29°C° 0 mm 1 mps 762 mmHg 28%
    15:00 +30°C° 0 mm 1 mps 762 mmHg 26%
    16:00 +28°C° 0 mm 1 mps 762 mmHg 30%
    17:00 +26°C° 0 mm 1 mps 762 mmHg 34%
    18:00 +24°C° 0 mm 2 mps 763 mmHg 38%
    19:00 +24°C° 0 mm 2 mps 763 mmHg 41%
    20:00 +22°C° 0 mm 3 mps 763 mmHg 43%
    21:00 +21°C° 0 mm 3 mps 764 mmHg 46%
    22:00 +20°C° 0 mm 3 mps 764 mmHg 56%
    23:00 +20°C° 0 mm 3 mps 764 mmHg 65%

    Day after tomorrow, 17 October, Thursday

    Time Temperature Precipitation Wind Pressure Humidity
    00:00 +19°C° 0 mm 3 mps 764 mmHg 74%
    01:00 +18°C° 0 mm 3 mps 764 mmHg 77%
    02:00 +18°C° 0 mm 2 mps 764 mmHg 81%
    03:00 +17°C° 0 mm 2 mps 764 mmHg 84%
    04:00 +18°C° 0 mm 1 mps 764 mmHg 86%
    05:00 +16°C° 0 mm 1 mps 765 mmHg 88%
    06:00 +16°C° 0 mm 1 mps 765 mmHg 89%
    07:00 +19°C° 0 mm 1 mps 765 mmHg 82%
    08:00 +20°C° 0 mm 1 mps 765 mmHg 74%
    09:00 +22°C° 0 mm 1 mps 765 mmHg 67%
    10:00 +23°C° 0 mm 1 mps 765 mmHg 59%
    11:00 +25°C° 0 mm 1 mps 764 mmHg 52%
    12:00 +26°C° 0 mm 1 mps 764 mmHg 44%
    13:00 +27°C° 0 mm 2 mps 763 mmHg 41%
    14:00 +28°C° 0 mm 2 mps 763 mmHg 37%
    15:00 +28°C° 0 mm 2 mps 763 mmHg 34%
    16:00 +27°C° 0 mm 2 mps 763 mmHg 38%
    17:00 +25°C° 0 mm 2 mps 763 mmHg 42%
    18:00 +24°C° 0 mm 2 mps 763 mmHg 45%
    19:00 +23°C° 0 mm 2 mps 763 mmHg 49%
    20:00 +21°C° 0 mm 2 mps 763 mmHg 52%
    21:00 +20°C° 0 mm 2 mps 763 mmHg 55%
    22:00 +20°C° 0 mm 2 mps 763 mmHg 62%
    23:00 +19°C° 0 mm 2 mps 763 mmHg 68%

    18 October, Friday

    Time Temperature Precipitation Wind Pressure Humidity
    00:00 +18°C° 0 mm 2 mps 763 mmHg 74%
    01:00 +18°C° 0 mm 1 mps 763 mmHg 77%
    02:00 +18°C° 0 mm 1 mps 762 mmHg 79%
    03:00 +15°C° 0 mm 0 mps 762 mmHg 82%
    04:00 +15°C° 0 mm 0 mps 762 mmHg 82%
    05:00 +15°C° 0 mm 0 mps 762 mmHg 83%
    06:00 +15°C° 0 mm 0 mps 762 mmHg 83%
    07:00 +17°C° 0 mm 0 mps 762 mmHg 74%
    08:00 +19°C° 0 mm 0 mps 762 mmHg 66%
    09:00 +21°C° 0 mm 0 mps 762 mmHg 57%
    10:00 +24°C° 0 mm 1 mps 761 mmHg 51%
    11:00 +26°C° 0 mm 1 mps 761 mmHg 45%
    12:00 +27°C° 0 mm 1 mps 761 mmHg 39%
    13:00 +28°C° 0 mm 1 mps 760 mmHg 37%
    14:00 +28°C° 0 mm 1 mps 760 mmHg 34%
    15:00 +29°C° 0 mm 1 mps 759 mmHg 32%
    16:00 +28°C° 0 mm 1 mps 760 mmHg 35%
    17:00 +26°C° 0 mm 2 mps 760 mmHg 39%
    18:00 +25°C° 0 mm 2 mps 760 mmHg 43%
    19:00 +24°C° 0 mm 2 mps 761 mmHg 45%
    20:00 +23°C° 0 mm 2 mps 761 mmHg 47%
    21:00 +23°C° 0 mm 2 mps 761 mmHg 49%
    22:00 +21°C° 0 mm 2 mps 761 mmHg 57%
    23:00 +20°C° 0 mm 2 mps 761 mmHg 65%

    19 October, Saturday

    Time Temperature Precipitation Wind Pressure Humidity
    00:00 +19°C° 0 mm 3 mps 761 mmHg 72%
    01:00 +19°C° 0 mm 2 mps 761 mmHg 75%
    02:00 +18°C° 0 mm 2 mps 761 mmHg 77%
    03:00 +19°C° 0 mm 1 mps 761 mmHg 80%
    04:00 +18°C° 0 mm 1 mps 762 mmHg 81%
    05:00 +16°C° 0 mm 0 mps 762 mmHg 82%
    06:00 +16°C° 0 mm 0 mps 762 mmHg 84%
    07:00 +18°C° 0 mm 0 mps 762 mmHg 75%
    08:00 +19°C° 0 mm 0 mps 762 mmHg 67%
    09:00 +23°C° 0 mm 1 mps 762 mmHg 58%
    10:00 +25°C° 0 mm 1 mps 762 mmHg 52%
    11:00 +26°C° 0 mm 2 mps 762 mmHg 46%
    12:00 +28°C° 0 mm 2 mps 762 mmHg 40%
    13:00 +29°C° 0 mm 3 mps 761 mmHg 38%
    14:00 +29°C° 0 mm 3 mps 761 mmHg 36%
    15:00 +30°C° 0 mm 3 mps 761 mmHg 34%
    16:00 +28°C° 0 mm 3 mps 761 mmHg 38%
    17:00 +27°C° 0 mm 3 mps 761 mmHg 41%
    18:00 +25°C° 0 mm 3 mps 762 mmHg 44%
    19:00 +25°C° 0 mm 3 mps 762 mmHg 49%
    20:00 +23°C° 0 mm 4 mps 762 mmHg 54%
    21:00 +22°C° 0 mm 5 mps 762 mmHg 58%
    22:00 +21°C° 0 mm 4 mps 763 mmHg 62%
    23:00 +20°C° 0 mm 4 mps 763 mmHg 66%

    20 October, Sunday

    Time Temperature Precipitation Wind Pressure Humidity
    00:00 +20°C° 0 mm 3 mps 763 mmHg 70%
    01:00 +19°C° 0 mm 2 mps 763 mmHg 72%
    02:00 +19°C° 0 mm 2 mps 762 mmHg 75%
    03:00 +19°C° 0 mm 2 mps 762 mmHg 77%
    04:00 +19°C° 0 mm 1 mps 762 mmHg 78%
    05:00 +19°C° 0 mm 1 mps 762 mmHg 80%
    06:00 +19°C° 0 mm 1 mps 763 mmHg 81%
    07:00 +20°C° 0 mm 1 mps 763 mmHg 75%
    08:00 +21°C° 0 mm 1 mps 763 mmHg 68%
    09:00 +22°C° 0 mm 1 mps 763 mmHg 62%
    10:00 +24°C° 0 mm 1 mps 763 mmHg 56%
    11:00 +25°C° 0 mm 1 mps 763 mmHg 50%
    12:00 +26°C° 0 mm 1 mps 763 mmHg 45%
    13:00 +26°C° 0 mm 1 mps 762 mmHg 43%
    14:00 +27°C° 0 mm 1 mps 762 mmHg 42%
    15:00 +27°C° 0 mm 1 mps 762 mmHg 41%
    16:00 +26°C° 0 mm 1 mps 762 mmHg 44%
    17:00 +25°C° 0 mm 1 mps 762 mmHg 47%
    18:00 +24°C° 0 mm 2 mps 762 mmHg 50%
    19:00 +24°C° 0 mm 2 mps 763 mmHg 51%
    20:00 +22°C° 0 mm 3 mps 763 mmHg 52%
    21:00 +21°C° 0 mm 4 mps 763 mmHg 53%
    22:00 +21°C° 0 mm 3 mps 763 mmHg 55%
    23:00 +20°C° 0 mm 3 mps 763 mmHg 58%
    Show more